TOURFACTS.DK  
Stats and Facts from Tour de France.

Tour de France 2018 starts in 12 days
  Riders   Stages   Teams   Summits   Yearly  


 
Search by year

After 2017 - Stage 21:
 14824 starters.
  5132 different riders.
  639 teams.
  2232 stages.
  456 restdays.
  439589.60 km.
  5653 abandonnees.


Top 3
GC
Christopher Froome86:20:55
Rigoberto Urán86:21:49
Romain Bardet86:23:15
Climb
Warren Barguil169 pt.
Primoz Roglic80 pt.
Thomas De Gendt64 pt.
Sprint
Michael Matthews359 pt.
André Greipel234 pt.
Edvald Boasson Hagen220 pt.
Youth
Simon Yates86:27:09
Louis Meintjes86:29:15
Emanuel Buchmann86:54:16
Facts from Tour de France 1949
  |   Stages.  |   Stage winners.  |   Days in yellow  |   Average speed.  |   Route.  |   Teams.  |   All riders.  |   Rookies.  |  

  |   Withdrawls.  |   GC.  |   Polka  |   Green  |   White  |   Summits. (In tour)  |   Miscellaneous.  |  

Stage 5 on 04 - 07 - 1949
         Owning:    Jacques Marinelli    
Pick a stage:  1 2 3 4 5 6 7 8 9 10 11 12 13 14 15 16 17 18 19 20 21
  RouenSaint-Malo | Dist: 293.00 km.

Average speed for all riders in stage:  33,273 km./hr.
    Place:Name:Team:Time:Km/h:
SUIFerdi KüblerCHESwitzerland08:27:13  +  00:00:00=34,660 
FRABernard GauthierFRAFrance08:27:13  +  00:00:00=34,660 
ITAGiuseppe TaccaFRAIle De France08:27:13  +  00:00:00=34,660 
4 FRAJacques MarinelliFRAIle De France08:27:13  +  00:00:00=34,660 
5 BELMarcel DupontBELAiglons Belges08:27:13  +  00:00:00=34,660 
6 FRAJean RobicFRAWest-North08:32:43  +  00:05:30=34,288 
7 FRALouis CaputFRAIle De France08:32:43  +  00:05:30=34,288 
8 BELStan OckersBELBelgium08:32:43  +  00:05:30=34,288 
9 ITAGino BartaliITAItaly08:32:43  +  00:05:30=34,288 
10 ITAGino SciardisITAItaly08:32:43  +  00:05:30=34,288 
11 FRAPierre CoganFRAWest-North08:32:43  +  00:05:30=34,288 
12 FRAJean-Marie GoasmatFRAWest-North08:32:43  +  00:05:30=34,288 
13 FRAHenri MassalFRACenter-South West08:32:43  +  00:05:30=34,288 
14 ITAFermo CamelliniFRASouth-East08:32:43  +  00:05:30=34,288 
15 ITAVittorio MagniITACadetti Italiens08:32:43  +  00:05:30=34,288 
16 LUXJean GoldschmitLUXLuxembourg08:35:35  +  00:08:22=34,097 
17 ITAGiuseppe AusendaITACadetti Italiens08:35:35  +  00:08:22=34,097 
18 BELJoseph VerhaertBELAiglons Belges08:37:35  +  00:10:22=33,966 
19 FRAMaurice DiotFRAFrance08:37:55  +  00:10:42=33,944 
20 SUIPierre BrambillaFRASouth-East08:37:55  +  00:10:42=33,944 
21 FRARené ViettoFRAFrance08:39:35  +  00:12:22=33,835 
22 BELRoger LambrechtBELBelgium08:45:37  +  00:18:24=33,446 
23 FRARoger LevequeFRACenter-South West08:45:42  +  00:18:29=33,441 
24 FRAGuy LapébieFRAFrance08:45:45  +  00:18:32=33,438 
25 FRARoger Le NizerhyFRAWest-North08:45:45  +  00:18:32=33,438 
26 FRAAntonin RollandFRASouth-East08:45:48  +  00:18:35=33,435 
27 FRALucien TeisseireFRAFrance08:45:56  +  00:18:43=33,426 
28 BELFlorent MathieuBELBelgium08:45:56  +  00:18:43=33,426 
29 LUXMarcel ErnzerLUXLuxembourg08:45:56  +  00:18:43=33,426 
30 FRAAndré BruléFRAIle De France08:45:56  +  00:18:43=33,426 
31 FRAAlbert DolhatsFRACenter-South West08:45:56  +  00:18:43=33,426 
32 LUXJean KirchenLUXLuxembourg08:45:56  +  00:18:43=33,426 
33 FRAPaul PineauFRACenter-South West08:45:56  +  00:18:43=33,426 
34 NEDWim De RuyterNLDHolland08:45:56  +  00:18:43=33,426 
35 NEDFrans PauwelsNLDHolland08:45:56  +  00:18:43=33,426 
36 ITAFausto CoppiITAItaly08:45:56  +  00:18:43=33,426 
37 BELDésiré KeteleerBELBelgium08:45:56  +  00:18:43=33,426 
38 BELRaymond ImpanisBELBelgium08:45:56  +  00:18:43=33,426 
39 FRAAnge Le StratFRAWest-North08:45:56  +  00:18:43=33,426 
40 ITASylvio PedroniITACadetti Italiens08:45:56  +  00:18:43=33,426 
41 ITAArmando PeverelliITACadetti Italiens08:45:56  +  00:18:43=33,426 
42 BELMarcel De MulderBELAiglons Belges08:45:56  +  00:18:43=33,426 
43 BELJacques GeusBELAiglons Belges08:45:56  +  00:18:43=33,426 
44 ITAAlfredo MartiniITACadetti Italiens08:45:56  +  00:18:43=33,426 
45 ITASerifano BiagioniITAItaly08:45:56  +  00:18:43=33,426 
46 FRALouis DeprezFRAFrance08:45:56  +  00:18:43=33,426 
47 FRARobert ChapatteFRAFrance08:45:56  +  00:18:43=33,426 
48 FRALouison BobetFRAFrance08:45:56  +  00:18:43=33,426 
49 FRARaphaël GeminianiFRAFrance08:45:56  +  00:18:43=33,426 
50 FRAJean ReyFRASouth-East08:45:56  +  00:18:43=33,426 
51 FRAJean-Apotre LazaridesFRAFrance08:45:56  +  00:18:43=33,426 
52 FRALucien LazaridesFRAFrance08:45:56  +  00:18:43=33,426 
53 LUXJean DiederichLUXLuxembourg08:45:56  +  00:18:43=33,426 
54 ITABruno PasquiniITAItaly08:45:56  +  00:18:43=33,426 
55 BELBriek SchotteBELBelgium08:45:56  +  00:18:43=33,426 
56 ITAÉdouard FachleitnerFRASouth-East08:45:56  +  00:18:43=33,426 
57 ITANello LaurediFRASouth-East08:45:56  +  00:18:43=33,426 
58 SUIGeorges AeschlimannCHESwitzerland08:45:56  +  00:18:43=33,426 
59 ESPJosé SerraESPSpain08:46:25  +  00:19:12=33,396 
60 FRAAndre MahéFRAWest-North08:50:19  +  00:23:06=33,150 
61 ITAAdolphe DeleddaFRASouth-East08:50:19  +  00:23:06=33,150 
62 FRAGeorges MartinFRASouth-East08:50:19  +  00:23:06=33,150 
63 ITAEttore MilanoITAItaly08:51:10  +  00:23:57=33,097 
64 SUIGottfried WeilenmannCHESwitzerland08:51:10  +  00:23:57=33,097 
65 FRAMarcel DussaultFRACenter-South West08:53:38  +  00:26:25=32,944 
66 FRARobert DesbatsFRACenter-South West08:55:47  +  00:28:34=32,812 
67 FRAGeorges RamouluxFRACenter-South West08:55:47  +  00:28:34=32,812 
68 NEDHenk de HoogNLDHolland09:02:09  +  00:34:56=32,426 
69 BELMarcel HendrickxBELAiglons Belges09:02:09  +  00:34:56=32,426 
70 NEDHuub SijenNLDHolland09:02:09  +  00:34:56=32,426 
71 FRACamille DanguillaumeFRAFrance09:02:09  +  00:34:56=32,426 
72 BELNorbert CallensBELBelgium09:02:09  +  00:34:56=32,426 
73 ITAAngelo BrignoleITAItaly09:02:09  +  00:34:56=32,426 
74 GERCésar MarcelakFRAWest-North09:02:09  +  00:34:56=32,426 
75 ITAMario RicciITAItaly09:02:09  +  00:34:56=32,426 
76 FRAEmile IdéeFRAIle De France09:02:09  +  00:34:56=32,426 
77 BELRik Van SteenbergenBELBelgium09:02:09  +  00:34:56=32,426 
78 BELEdward Van DijckBELBelgium09:02:09  +  00:34:56=32,426 
79 FRARaymond LucasFRAIle De France09:02:09  +  00:34:56=32,426 
80 FRAPaul GiguetFRASouth-East09:05:32  +  00:38:19=32,225 
81 SUIRoger AeschlimannCHESwitzerland09:05:32  +  00:38:19=32,225 
82 SUIErnst StettlerCHESwitzerland09:05:32  +  00:38:19=32,225 
83 SUIHans HutmacherCHESwitzerland09:05:32  +  00:38:19=32,225 
84 BELMarcel KintBELBelgium09:05:32  +  00:38:19=32,225 
85 BELRoger GhyselinckBELBelgium09:05:32  +  00:38:19=32,225 
86 MARCustodio Dos ReisFRACenter-South West09:05:32  +  00:38:19=32,225 
87 FRAJean BlancFRACenter-South West09:05:32  +  00:38:19=32,225 
88 ITAGiovanni CorrieriITAItaly09:05:32  +  00:38:19=32,225 
89 ITAGuido De SantiITAItaly09:05:32  +  00:38:19=32,225 
90 ITAVincenzo RosselloITAItaly09:05:32  +  00:38:19=32,225 
91 ITALuciano PezziITAItaly09:05:32  +  00:38:19=32,225 
92 FRAEdouard MullerFRAIle De France09:05:32  +  00:38:19=32,225 

Withdrawls: 11
 
Rider
Team
Reason
50  NEDAndré De KorverNLDHollandDid not finish
52  NEDJan LambrichsNLDHollandDid not finish
55  ESPJulián BerrenderoESPSpainDid not finish
57  ESPDalmácio LangaricaESPSpainDid not finish
58  ESPEmilio RodriguezESPSpainDid not finish
59  ESPBernardo RuízESPSpainDid not finish
76  FRADominique ForliniFRAIle De FranceDid not finish
82  ITAAttilio RedolfiFRAIle De FranceDid not finish
87  GEREdouard KlabinskiFRAWest-NorthDid not finish
94  FRARoger PontetFRAWest-NorthDid not finish
116  FRAPierre MolinerisFRASouth-EastDid not finish

Todays birthdays.

1875  Jules Sales
1888  Leon Lannoy
1922  Henri Surbatis
1932  Ferdinand Devèze
1939  Dieter Puschel
1961  Gerhard Zadrobilek
1964  Javier Duch
1965  Clarence Knickman
1968  Michael Sandstød
1986  Simon Spilak




Visits: